QPF
0.14 0.14 0.11 0.07 0.06 0.06 0.07 0.06 0.06 0.06 0.05 0.06 0.05 0.04 0.05 0.05 0.06 0.07 0.07 0.06 0.04 0.04 0.06 0.05 0.04 0.04 0.04 0.03 0.04 0.05 0.05 0.06 0.06 0.05 0.04 0.03 0.03 0.03 0.03 0.03 0.03 0.03 0.03
0.15 0.12 0.10 0.08 0.06 0.06 0.05 0.06 0.07 0.06 0.07 0.09 0.07 0.05 0.05 0.06 0.07 0.06 0.07 0.07 0.05 0.05 0.05 0.05 0.04 0.04 0.05 0.04 0.04 0.05 0.06 0.06 0.06 0.05 0.05 0.04 0.03 0.03 0.03 0.03 0.03 0.03 0.02
0.09 0.08 0.08 0.06 0.05 0.05 0.06 0.06 0.07 0.08 0.09 0.10 0.09 0.09 0.08 0.07 0.05 0.05 0.05 0.07 0.07 0.04 0.04 0.04 0.04 0.04 0.04 0.05 0.05 0.06 0.07 0.07 0.08 0.06 0.05 0.05 0.04 0.03 0.03 0.03 0.03 0.03 0.03
0.06 0.06 0.06 0.04 0.04 0.05 0.05 0.06 0.07 0.08 0.09 0.10 0.10 0.10 0.10 0.09 0.06 0.06 0.05 0.05 0.06 0.05 0.03 0.03 0.03 0.03 0.03 0.04 0.06 0.06 0.07 0.08 0.08 0.08 0.07 0.06 0.05 0.05 0.04 0.03 0.03 0.03 0.03
0.05 0.06 0.06 0.05 0.04 0.05 0.06 0.06 0.07 0.09 0.09 0.09 0.09 0.09 0.08 0.08 0.07 0.05 0.04 0.04 0.06 0.08 0.05 0.02 0.02 0.01 0.02 0.03 0.04 0.05 0.05 0.06 0.07 0.07 0.06 0.06 0.05 0.05 0.04 0.03 0.03 0.03 0.02
0.05 0.06 0.05 0.05 0.05 0.06 0.07 0.08 0.09 0.09 0.10 0.10 0.08 0.08 0.07 0.06 0.06 0.05 0.03 0.03 0.05 0.06 0.05 0.04 0.02 0.01 0.01 0.02 0.03 0.03 0.04 0.07 0.08 0.07 0.06 0.06 0.05 0.04 0.03 0.03 0.03 0.03 0.03
0.05 0.05 0.05 0.06 0.05 0.06 0.07 0.08 0.10 0.09 0.10 0.08 0.09 0.09 0.08 0.05 0.05 0.05 0.04 0.03 0.03 0.03 0.05 0.08 0.04 0.01 0.01 0.01 0.02 0.02 0.03 0.05 0.07 0.06 0.04 0.04 0.03 0.02 0.02 0.02 0.02 0.03 0.04
0.03 0.03 0.05 0.05 0.06 0.08 0.09 0.11 0.12 0.11 0.10 0.08 0.09 0.11 0.12 0.11 0.06 0.04 0.05 0.04 0.04 0.06 0.07 0.09 0.06 0.03 0.02 0.02 0.02 0.02 0.03 0.04 0.05 0.06 0.05 0.04 0.02 0.02 0.02 0.02 0.02 0.02 0.03
0.03 0.03 0.05 0.06 0.08 0.08 0.08 0.10 0.12 0.11 0.10 0.09 0.12 0.14 0.15 0.15 0.10 0.06 0.05 0.05 0.05 0.06 0.06 0.05 0.04 0.04 0.03 0.03 0.03 0.03 0.03 0.03 0.04 0.05 0.05 0.04 0.03 0.02 0.02 0.02 0.02 0.02 0.03
0.04 0.04 0.04 0.05 0.08 0.08 0.09 0.09 0.10 0.10 0.10 0.08 0.08 0.10 0.09 0.10 0.10 0.09 0.07 0.07 0.07 0.08 0.06 0.04 0.03 0.03 0.04 0.04 0.04 0.04 0.03 0.03 0.03 0.04 0.04 0.04 0.04 0.04 0.05 0.03 0.03 0.03 0.04
0.04 0.03 0.03 0.05 0.06 0.08 0.08 0.08 0.09 0.09 0.09 0.08 0.07 0.07 0.08 0.08 0.08 0.12 0.10 0.08 0.07 0.07 0.06 0.05 0.04 0.04 0.04 0.05 0.05 0.04 0.04 0.03 0.03 0.03 0.03 0.03 0.04 0.04 0.04 0.04 0.03 0.04 0.04
0.04 0.04 0.04 0.05 0.06 0.07 0.07 0.08 0.09 0.10 0.11 0.10 0.09 0.08 0.05 0.05 0.06 0.07 0.09 0.07 0.06 0.04 0.04 0.04 0.03 0.04 0.03 0.03 0.03 0.02 0.02 0.02 0.02 0.02 0.01 0.01 0.02 0.02 0.03 0.03 0.04 0.05 0.05
0.05 0.05 0.04 0.05 0.06 0.06 0.06 0.07 0.07 0.09 0.08 0.08 0.07 0.07 0.06 0.04 0.03 0.04 0.06 0.07 0.06 0.05 0.04 0.04 0.02 0.03 0.04 0.02 0.02 0.03 0.02 0.01 0.01 0.01 0.01 0.01 0.00 0.01 0.01 0.02 0.03 0.05 0.06
0.05 0.05 0.06 0.06 0.05 0.05 0.05 0.06 0.06 0.05 0.04 0.03 0.04 0.05 0.05 0.04 0.03 0.04 0.05 0.08 0.07 0.06 0.06 0.05 0.03 0.03 0.04 0.04 0.02 0.02 0.01 0.00 0.00 0.00 0.00 0.00 0.00 0.00 0.01 0.01 0.01 0.02 0.04
0.05 0.07 0.08 0.08 0.07 0.06 0.05 0.05 0.05 0.04 0.03 0.03 0.04 0.04 0.03 0.03 0.02 0.03 0.03 0.05 0.07 0.06 0.06 0.05 0.04 0.03 0.03 0.04 0.03 0.02 0.02 0.01 0.00 0.00 0.00 0.00 0.00 0.00 0.00 0.01 0.01 0.01 0.02
0.06 0.08 0.07 0.05 0.05 0.05 0.04 0.05 0.05 0.04 0.05 0.04 0.04 0.03 0.02 0.02 0.02 0.02 0.02 0.03 0.04 0.05 0.05 0.03 0.02 0.02 0.02 0.02 0.03 0.03 0.03 0.02 0.01 0.00 0.00 0.00 0.00 0.00 0.01 0.01 0.00 0.01 0.01
0.08 0.07 0.04 0.03 0.03 0.04 0.05 0.05 0.05 0.04 0.03 0.04 0.04 0.03 0.02 0.02 0.03 0.02 0.03 0.03 0.03 0.04 0.05 0.03 0.02 0.02 0.02 0.01 0.02 0.03 0.03 0.02 0.01 0.00 0.00 0.00 0.00 0.00 0.01 0.01 0.01 0.01 0.01
0.05 0.04 0.03 0.03 0.03 0.03 0.04 0.04 0.04 0.03 0.03 0.03 0.04 0.04 0.03 0.03 0.03 0.03 0.04 0.04 0.04 0.05 0.05 0.03 0.03 0.03 0.02 0.02 0.02 0.02 0.02 0.02 0.01 0.00 0.00 0.00 0.00 0.00 0.00 0.00 0.01 0.01 0.01
0.03 0.04 0.03 0.03 0.03 0.03 0.03 0.03 0.03 0.03 0.02 0.02 0.02 0.03 0.03 0.03 0.03 0.03 0.03 0.04 0.05 0.05 0.06 0.04 0.03 0.03 0.02 0.02 0.02 0.02 0.02 0.03 0.01 0.00 0.00 0.01 0.00 0.00 0.00 0.00 0.00 0.00 0.01
0.04 0.04 0.03 0.03 0.03 0.04 0.04 0.03 0.03 0.03 0.02 0.02 0.02 0.02 0.02 0.02 0.02 0.02 0.03 0.04 0.06 0.06 0.05 0.05 0.03 0.03 0.02 0.02 0.02 0.02 0.03 0.04 0.02 0.01 0.01 0.00 0.00 0.00 0.00 0.00 0.00 0.00 0.00
0.04 0.04 0.04 0.04 0.04 0.04 0.04 0.04 0.03 0.02 0.02 0.02 0.02 0.02 0.01 0.02 0.02 0.02 0.03 0.04 0.05 0.05 0.05 0.05 0.04 0.03 0.03 0.03 0.03 0.03 0.04 0.04 0.03 0.02 0.02 0.02 0.01 0.01 0.01 0.00 0.00 0.00 0.00
0.05 0.04 0.04 0.05 0.05 0.03 0.03 0.02 0.02 0.03 0.03 0.02 0.02 0.02 0.02 0.02 0.02 0.02 0.02 0.03 0.04 0.06 0.05 0.04 0.04 0.03 0.03 0.03 0.03 0.04 0.05 0.05 0.04 0.03 0.03 0.03 0.02 0.03 0.03 0.02 0.01 0.00 0.00
0.06 0.05 0.04 0.05 0.05 0.05 0.02 0.01 0.02 0.04 0.04 0.03 0.03 0.03 0.01 0.01 0.02 0.02 0.02 0.02 0.03 0.05 0.07 0.06 0.04 0.04 0.04 0.03 0.03 0.03 0.03 0.03 0.03 0.03 0.04 0.04 0.04 0.04 0.03 0.02 0.02 0.01 0.01
0.05 0.05 0.05 0.06 0.05 0.04 0.02 0.01 0.01 0.03 0.04 0.04 0.04 0.03 0.03 0.02 0.02 0.02 0.02 0.03 0.03 0.04 0.05 0.06 0.06 0.06 0.06 0.06 0.04 0.04 0.04 0.03 0.03 0.03 0.03 0.04 0.04 0.04 0.02 0.02 0.01 0.01 0.01
0.05 0.05 0.06 0.07 0.06 0.04 0.02 0.02 0.02 0.02 0.03 0.04 0.04 0.03 0.03 0.02 0.02 0.02 0.02 0.03 0.04 0.04 0.04 0.05 0.06 0.06 0.06 0.05 0.05 0.04 0.04 0.03 0.02 0.02 0.03 0.04 0.04 0.03 0.03 0.03 0.01 0.01 0.01
0.05 0.05 0.07 0.08 0.06 0.05 0.03 0.02 0.02 0.02 0.02 0.02 0.02 0.02 0.02 0.01 0.02 0.02 0.02 0.03 0.04 0.05 0.05 0.05 0.05 0.06 0.05 0.03 0.03 0.04 0.04 0.04 0.03 0.03 0.03 0.04 0.04 0.03 0.04 0.03 0.02 0.01 0.01
MSLP
1011.37 1011.40 1011.35 1011.26 1011.17 1011.14 1011.18 1011.29 1011.47 1011.66 1011.83 1011.91 1011.91 1011.83 1011.68 1011.52 1011.39 1011.34 1011.39 1011.52 1011.72 1011.96 1012.19 1012.39 1012.53 1012.62 1012.67 1012.69 1012.70 1012.72 1012.75 1012.79 1012.85 1012.92 1013.00 1013.10 1013.21 1013.36 1013.52 1013.71 1013.91 1014.12 1014.33
1011.11 1011.11 1011.04 1010.95 1010.88 1010.86 1010.93 1011.09 1011.31 1011.55 1011.77 1011.91 1011.96 1011.91 1011.79 1011.63 1011.48 1011.38 1011.36 1011.42 1011.55 1011.73 1011.92 1012.09 1012.24 1012.34 1012.40 1012.44 1012.46 1012.47 1012.48 1012.49 1012.51 1012.54 1012.58 1012.64 1012.73 1012.84 1012.99 1013.16 1013.35 1013.55 1013.75
1010.92 1010.90 1010.83 1010.74 1010.69 1010.71 1010.82 1011.02 1011.29 1011.59 1011.85 1012.05 1012.14 1012.12 1012.01 1011.84 1011.66 1011.50 1011.41 1011.39 1011.44 1011.55 1011.70 1011.86 1012.00 1012.12 1012.21 1012.27 1012.31 1012.32 1012.31 1012.30 1012.28 1012.28 1012.28 1012.31 1012.37 1012.46 1012.58 1012.73 1012.89 1013.07 1013.23
1010.78 1010.74 1010.66 1010.59 1010.56 1010.62 1010.78 1011.02 1011.34 1011.68 1011.99 1012.22 1012.35 1012.36 1012.26 1012.08 1011.86 1011.66 1011.50 1011.40 1011.39 1011.44 1011.54 1011.68 1011.83 1011.97 1012.08 1012.17 1012.22 1012.23 1012.23 1012.20 1012.16 1012.12 1012.09 1012.09 1012.12 1012.19 1012.28 1012.39 1012.51 1012.63 1012.75
1010.65 1010.58 1010.50 1010.45 1010.46 1010.55 1010.74 1011.03 1011.38 1011.75 1012.09 1012.35 1012.51 1012.54 1012.46 1012.28 1012.06 1011.82 1011.61 1011.47 1011.39 1011.40 1011.46 1011.58 1011.72 1011.86 1011.99 1012.10 1012.16 1012.19 1012.18 1012.14 1012.08 1012.03 1011.98 1011.96 1011.97 1012.00 1012.05 1012.11 1012.17 1012.23 1012.26
1010.51 1010.41 1010.34 1010.30 1010.34 1010.46 1010.68 1010.99 1011.35 1011.74 1012.10 1012.38 1012.56 1012.63 1012.58 1012.43 1012.22 1011.98 1011.76 1011.58 1011.47 1011.43 1011.45 1011.54 1011.66 1011.80 1011.93 1012.03 1012.11 1012.14 1012.13 1012.09 1012.03 1011.96 1011.91 1011.87 1011.85 1011.85 1011.86 1011.87 1011.85 1011.82 1011.76
1010.36 1010.24 1010.17 1010.15 1010.21 1010.36 1010.59 1010.91 1011.27 1011.65 1012.01 1012.31 1012.52 1012.63 1012.63 1012.53 1012.36 1012.16 1011.95 1011.76 1011.62 1011.54 1011.52 1011.56 1011.64 1011.75 1011.86 1011.95 1012.02 1012.05 1012.04 1012.00 1011.95 1011.89 1011.83 1011.78 1011.75 1011.72 1011.68 1011.63 1011.54 1011.41 1011.25
1010.23 1010.11 1010.04 1010.04 1010.11 1010.27 1010.51 1010.82 1011.16 1011.53 1011.88 1012.19 1012.43 1012.59 1012.65 1012.62 1012.52 1012.37 1012.19 1012.00 1011.85 1011.73 1011.65 1011.63 1011.65 1011.71 1011.77 1011.84 1011.88 1011.90 1011.90 1011.87 1011.82 1011.77 1011.72 1011.67 1011.63 1011.58 1011.50 1011.39 1011.23 1011.02 1010.77
1010.17 1010.05 1009.99 1010.01 1010.10 1010.26 1010.49 1010.77 1011.09 1011.42 1011.76 1012.07 1012.34 1012.55 1012.68 1012.74 1012.72 1012.63 1012.49 1012.32 1012.14 1011.98 1011.84 1011.74 1011.69 1011.66 1011.66 1011.68 1011.69 1011.69 1011.68 1011.66 1011.63 1011.59 1011.56 1011.53 1011.48 1011.42 1011.32 1011.17 1010.95 1010.68 1010.36
1010.19 1010.09 1010.06 1010.10 1010.20 1010.36 1010.56 1010.81 1011.08 1011.38 1011.69 1012.00 1012.29 1012.54 1012.74 1012.88 1012.94 1012.92 1012.83 1012.67 1012.48 1012.27 1012.06 1011.87 1011.72 1011.61 1011.53 1011.48 1011.45 1011.43 1011.41 1011.39 1011.38 1011.36 1011.35 1011.33 1011.30 1011.23 1011.13 1010.95 1010.71 1010.40 1010.04
1010.29 1010.23 1010.23 1010.29 1010.40 1010.55 1010.73 1010.93 1011.16 1011.40 1011.68 1011.97 1012.27 1012.56 1012.82 1013.03 1013.16 1013.20 1013.15 1013.01 1012.80 1012.54 1012.26 1011.99 1011.75 1011.54 1011.38 1011.27 1011.18 1011.13 1011.09 1011.07 1011.07 1011.07 1011.07 1011.07 1011.06 1011.01 1010.91 1010.75 1010.51 1010.20 1009.83
1010.44 1010.42 1010.47 1010.55 1010.67 1010.81 1010.95 1011.10 1011.27 1011.46 1011.69 1011.96 1012.25 1012.57 1012.87 1013.13 1013.32 1013.42 1013.40 1013.27 1013.05 1012.76 1012.43 1012.08 1011.76 1011.47 1011.23 1011.05 1010.91 1010.82 1010.76 1010.72 1010.71 1010.71 1010.73 1010.75 1010.76 1010.74 1010.67 1010.54 1010.33 1010.05 1009.71
1010.57 1010.61 1010.69 1010.80 1010.93 1011.05 1011.16 1011.26 1011.37 1011.50 1011.68 1011.91 1012.19 1012.50 1012.83 1013.12 1013.36 1013.49 1013.51 1013.41 1013.19 1012.88 1012.52 1012.13 1011.75 1011.40 1011.11 1010.86 1010.67 1010.53 1010.42 1010.36 1010.32 1010.32 1010.33 1010.36 1010.39 1010.40 1010.38 1010.30 1010.15 1009.93 1009.64
1010.63 1010.72 1010.84 1010.98 1011.11 1011.21 1011.29 1011.35 1011.40 1011.48 1011.60 1011.79 1012.04 1012.34 1012.66 1012.97 1013.23 1013.40 1013.46 1013.38 1013.19 1012.90 1012.54 1012.14 1011.74 1011.36 1011.02 1010.73 1010.48 1010.28 1010.13 1010.01 1009.94 1009.90 1009.89 1009.92 1009.96 1010.00 1010.03 1010.01 1009.94 1009.80 1009.59
1010.60 1010.72 1010.88 1011.03 1011.16 1011.26 1011.32 1011.34 1011.35 1011.38 1011.46 1011.59 1011.80 1012.07 1012.37 1012.68 1012.96 1013.15 1013.24 1013.22 1013.07 1012.82 1012.50 1012.13 1011.74 1011.36 1011.00 1010.67 1010.38 1010.13 1009.91 1009.72 1009.58 1009.49 1009.45 1009.45 1009.49 1009.56 1009.64 1009.69 1009.70 1009.65 1009.53
1010.48 1010.63 1010.80 1010.97 1011.11 1011.20 1011.25 1011.26 1011.24 1011.24 1011.27 1011.36 1011.52 1011.75 1012.02 1012.32 1012.59 1012.80 1012.93 1012.95 1012.87 1012.69 1012.43 1012.12 1011.78 1011.42 1011.07 1010.72 1010.40 1010.08 1009.79 1009.53 1009.32 1009.15 1009.05 1009.01 1009.05 1009.13 1009.24 1009.35 1009.44 1009.47 1009.43
1010.31 1010.47 1010.64 1010.82 1010.97 1011.08 1011.13 1011.14 1011.12 1011.10 1011.11 1011.16 1011.28 1011.46 1011.69 1011.95 1012.21 1012.43 1012.58 1012.66 1012.64 1012.55 1012.37 1012.14 1011.87 1011.56 1011.23 1010.89 1010.53 1010.17 1009.82 1009.48 1009.18 1008.93 1008.76 1008.68 1008.68 1008.75 1008.88 1009.03 1009.18 1009.28 1009.31
1010.16 1010.30 1010.47 1010.66 1010.82 1010.95 1011.03 1011.06 1011.06 1011.04 1011.03 1011.06 1011.14 1011.27 1011.45 1011.67 1011.90 1012.12 1012.29 1012.41 1012.46 1012.44 1012.35 1012.21 1012.01 1011.76 1011.47 1011.14 1010.78 1010.39 1009.98 1009.58 1009.21 1008.89 1008.65 1008.50 1008.45 1008.50 1008.62 1008.78 1008.95 1009.09 1009.17
1010.07 1010.19 1010.35 1010.53 1010.71 1010.87 1010.99 1011.06 1011.08 1011.09 1011.09 1011.10 1011.15 1011.23 1011.37 1011.54 1011.73 1011.92 1012.10 1012.24 1012.34 1012.39 1012.38 1012.31 1012.18 1012.00 1011.76 1011.46 1011.11 1010.71 1010.28 1009.84 1009.41 1009.03 1008.73 1008.52 1008.41 1008.41 1008.49 1008.63 1008.79 1008.93 1009.02
1010.08 1010.16 1010.30 1010.47 1010.67 1010.85 1011.01 1011.12 1011.20 1011.23 1011.25 1011.26 1011.29 1011.34 1011.43 1011.55 1011.70 1011.86 1012.02 1012.17 1012.29 1012.38 1012.42 1012.41 1012.35 1012.23 1012.05 1011.79 1011.48 1011.10 1010.67 1010.23 1009.78 1009.36 1009.01 1008.74 1008.57 1008.50 1008.51 1008.59 1008.70 1008.80 1008.87
1010.16 1010.20 1010.31 1010.47 1010.67 1010.88 1011.07 1011.23 1011.34 1011.42 1011.46 1011.48 1011.50 1011.53 1011.58 1011.66 1011.76 1011.89 1012.02 1012.16 1012.28 1012.38 1012.45 1012.48 1012.47 1012.40 1012.27 1012.08 1011.81 1011.48 1011.10 1010.68 1010.25 1009.83 1009.45 1009.13 1008.89 1008.74 1008.66 1008.65 1008.68 1008.71 1008.71
1010.28 1010.28 1010.35 1010.50 1010.68 1010.90 1011.11 1011.30 1011.46 1011.56 1011.64 1011.67 1011.70 1011.72 1011.75 1011.79 1011.86 1011.95 1012.05 1012.16 1012.26 1012.35 1012.43 1012.48 1012.49 1012.46 1012.39 1012.25 1012.06 1011.81 1011.50 1011.14 1010.75 1010.36 1009.97 1009.62 1009.32 1009.08 1008.91 1008.79 1008.70 1008.63 1008.55
1010.40 1010.36 1010.40 1010.51 1010.68 1010.88 1011.10 1011.30 1011.47 1011.61 1011.71 1011.76 1011.80 1011.82 1011.84 1011.87 1011.92 1011.97 1012.04 1012.12 1012.20 1012.27 1012.33 1012.37 1012.39 1012.39 1012.36 1012.29 1012.17 1012.01 1011.79 1011.52 1011.21 1010.86 1010.50 1010.13 1009.79 1009.47 1009.19 1008.95 1008.74 1008.56 1008.39
1010.48 1010.41 1010.41 1010.49 1010.62 1010.80 1011.00 1011.20 1011.38 1011.52 1011.63 1011.71 1011.76 1011.79 1011.82 1011.85 1011.89 1011.93 1011.98 1012.02 1012.07 1012.11 1012.14 1012.16 1012.18 1012.19 1012.19 1012.17 1012.13 1012.05 1011.93 1011.76 1011.54 1011.26 1010.93 1010.57 1010.19 1009.81 1009.44 1009.09 1008.78 1008.49 1008.23
1010.52 1010.43 1010.41 1010.45 1010.55 1010.69 1010.86 1011.03 1011.19 1011.33 1011.44 1011.52 1011.59 1011.64 1011.68 1011.72 1011.77 1011.81 1011.84 1011.87 1011.89 1011.90 1011.90 1011.89 1011.89 1011.89 1011.91 1011.92 1011.94 1011.94 1011.91 1011.83 1011.70 1011.49 1011.21 1010.88 1010.48 1010.06 1009.63 1009.20 1008.80 1008.43 1008.10
1010.53 1010.44 1010.40 1010.42 1010.49 1010.59 1010.72 1010.86 1010.99 1011.11 1011.20 1011.29 1011.36 1011.42 1011.48 1011.54 1011.59 1011.64 1011.68 1011.69 1011.69 1011.67 1011.64 1011.60 1011.57 1011.56 1011.57 1011.60 1011.65 1011.71 1011.74 1011.74 1011.68 1011.54 1011.32 1011.01 1010.64 1010.20 1009.73 1009.26 1008.81 1008.40 1008.03
Thickness
5733 5733 5732 5731 5731 5730 5730 5729 5730 5729 5728 5728 5728 5728 5728 5727 5726 5725 5723 5721 5720 5719 5718 5716 5714 5713 5712 5711 5710 5709 5708 5707 5706 5705 5704 5704 5703 5702 5701 5701 5700 5700 5700
5729 5729 5728 5727 5728 5728 5727 5726 5726 5725 5725 5724 5724 5725 5724 5723 5723 5722 5720 5718 5717 5716 5715 5713 5712 5710 5710 5709 5707 5706 5706 5705 5703 5702 5701 5701 5700 5699 5698 5698 5697 5697 5697
5726 5726 5724 5724 5724 5724 5724 5723 5723 5722 5721 5721 5720 5720 5720 5720 5720 5719 5718 5716 5714 5713 5711 5710 5709 5707 5706 5705 5704 5703 5703 5702 5700 5699 5698 5697 5697 5696 5695 5695 5694 5694 5694
5724 5723 5722 5721 5721 5721 5721 5719 5718 5717 5717 5716 5716 5716 5717 5716 5716 5716 5715 5714 5712 5711 5709 5707 5706 5704 5703 5702 5701 5700 5700 5699 5698 5697 5696 5694 5693 5693 5692 5691 5691 5690 5690
5721 5719 5718 5717 5717 5717 5717 5716 5714 5713 5711 5711 5711 5712 5712 5712 5713 5713 5712 5711 5710 5709 5707 5705 5703 5702 5701 5699 5698 5698 5697 5696 5695 5694 5693 5692 5691 5690 5689 5688 5687 5687 5687
5718 5716 5715 5714 5714 5713 5712 5711 5710 5710 5708 5707 5708 5708 5708 5709 5709 5709 5709 5708 5708 5707 5706 5703 5701 5699 5698 5697 5695 5695 5694 5693 5692 5691 5690 5689 5688 5686 5686 5685 5684 5684 5683
5715 5713 5712 5711 5711 5710 5708 5707 5706 5705 5704 5704 5701 5699 5701 5704 5705 5705 5705 5705 5704 5704 5703 5700 5699 5697 5695 5694 5692 5692 5691 5690 5689 5689 5688 5686 5685 5684 5683 5682 5681 5680 5680
5712 5712 5709 5708 5708 5706 5705 5704 5702 5700 5700 5701 5696 5691 5689 5692 5697 5702 5701 5700 5700 5700 5699 5697 5696 5694 5693 5691 5689 5688 5687 5687 5685 5685 5684 5683 5681 5680 5679 5679 5678 5677 5677
5710 5709 5707 5706 5705 5703 5701 5700 5699 5696 5694 5695 5695 5690 5684 5682 5687 5693 5695 5696 5696 5696 5695 5694 5693 5692 5690 5688 5686 5684 5684 5683 5682 5681 5680 5679 5678 5677 5676 5675 5674 5674 5673
5708 5706 5704 5703 5701 5699 5698 5697 5696 5695 5692 5689 5691 5692 5690 5687 5681 5681 5686 5690 5691 5691 5691 5692 5690 5689 5687 5686 5683 5681 5679 5678 5677 5676 5675 5674 5673 5672 5672 5671 5670 5669 5669
5704 5703 5701 5699 5697 5695 5694 5693 5693 5691 5690 5688 5687 5687 5686 5684 5684 5677 5675 5679 5683 5686 5688 5687 5686 5685 5684 5682 5680 5677 5675 5674 5673 5671 5670 5669 5668 5667 5667 5666 5665 5665 5664
5701 5700 5698 5695 5694 5692 5691 5690 5689 5688 5686 5685 5684 5683 5681 5678 5676 5674 5671 5672 5674 5679 5682 5683 5682 5681 5679 5677 5675 5673 5671 5669 5668 5666 5666 5664 5663 5662 5661 5660 5660 5659 5658
5697 5696 5695 5692 5691 5689 5688 5687 5685 5684 5683 5681 5680 5679 5678 5676 5676 5673 5669 5668 5668 5673 5676 5676 5677 5676 5674 5672 5670 5668 5666 5664 5663 5661 5660 5659 5658 5657 5655 5654 5653 5652 5651
5695 5694 5692 5690 5688 5687 5686 5684 5682 5681 5679 5677 5676 5675 5673 5673 5673 5670 5667 5664 5661 5664 5668 5669 5672 5671 5670 5668 5666 5664 5661 5659 5658 5656 5654 5653 5652 5651 5649 5648 5646 5645 5644
5694 5691 5689 5686 5685 5683 5682 5680 5677 5676 5675 5674 5673 5671 5670 5669 5669 5668 5666 5663 5658 5655 5657 5662 5664 5666 5665 5663 5661 5659 5657 5655 5653 5651 5649 5648 5646 5644 5642 5641 5639 5638 5637
5690 5688 5685 5683 5682 5680 5678 5676 5674 5673 5671 5669 5668 5667 5665 5665 5664 5664 5663 5661 5659 5655 5653 5657 5658 5661 5660 5659 5657 5655 5653 5651 5649 5646 5645 5643 5641 5639 5637 5635 5633 5631 5630
5687 5684 5682 5680 5678 5676 5675 5672 5671 5669 5667 5665 5664 5663 5661 5661 5659 5660 5659 5658 5656 5654 5650 5652 5654 5655 5654 5653 5652 5650 5649 5647 5644 5643 5641 5638 5636 5634 5631 5629 5627 5625 5624
5683 5681 5679 5677 5675 5673 5671 5669 5667 5666 5664 5662 5661 5659 5657 5657 5655 5654 5653 5653 5652 5651 5648 5645 5647 5649 5649 5649 5648 5646 5645 5644 5641 5640 5637 5634 5632 5629 5626 5624 5622 5620 5618
5680 5678 5676 5674 5672 5670 5668 5667 5665 5663 5661 5659 5657 5655 5654 5652 5650 5649 5649 5648 5648 5648 5646 5643 5643 5645 5644 5644 5642 5641 5641 5638 5637 5635 5633 5630 5627 5624 5621 5619 5617 5615 5613
5678 5676 5674 5671 5670 5667 5665 5663 5662 5659 5658 5656 5655 5653 5652 5649 5647 5646 5645 5644 5643 5642 5641 5640 5639 5639 5638 5638 5636 5633 5631 5632 5631 5630 5628 5625 5623 5620 5617 5614 5612 5610 5607
5676 5673 5671 5669 5667 5664 5662 5659 5657 5657 5654 5652 5651 5650 5649 5647 5645 5643 5643 5640 5639 5637 5636 5635 5633 5633 5631 5629 5627 5626 5624 5624 5624 5624 5620 5619 5617 5614 5611 5609 5606 5604 5602
5672 5670 5668 5665 5663 5661 5658 5656 5654 5653 5651 5649 5647 5647 5646 5644 5643 5641 5640 5638 5636 5634 5632 5629 5628 5626 5625 5623 5621 5620 5617 5615 5613 5616 5613 5612 5611 5609 5607 5604 5601 5599 5596
5669 5667 5664 5662 5659 5657 5655 5653 5651 5650 5648 5647 5646 5644 5644 5644 5641 5639 5638 5636 5635 5633 5630 5627 5623 5622 5620 5619 5616 5614 5612 5609 5607 5609 5608 5605 5605 5603 5602 5600 5597 5594 5591
5666 5664 5662 5660 5657 5655 5653 5651 5650 5648 5647 5646 5645 5643 5642 5640 5639 5636 5635 5634 5632 5631 5629 5626 5623 5621 5619 5616 5614 5611 5607 5606 5607 5606 5603 5598 5598 5596 5597 5594 5591 5588 5585
5664 5662 5660 5658 5656 5654 5651 5649 5647 5646 5645 5645 5644 5643 5641 5638 5635 5632 5631 5629 5628 5627 5627 5625 5623 5620 5617 5615 5611 5606 5603 5600 5599 5599 5599 5594 5592 5590 5589 5587 5585 5582 5579
5663 5661 5659 5658 5655 5653 5649 5647 5644 5645 5644 5643 5642 5641 5638 5635 5632 5629 5627 5625 5623 5623 5622 5621 5619 5618 5615 5613 5610 5604 5601 5596 5594 5592 5594 5590 5587 5584 5581 5581 5578 5575 5573